Location: Briis
(48.6240°N, 2.1211°E)
Time: 17:21:33
(UTC+00:00)

Cosmos 372 Rocket - Pass Details

Date: 25 September 2020
Orbit: 739 x 767 km, 74.1° (Epoch: 22 October)

Event Time Altitude Azimuth Distance (km) Brightness Sun altitude
Rises 04:19:29 0° 333° (NNW) 3,211 7.1 -14.4°
Reaches altitude 10° 04:21:54 10° 330° (NNW) 2,278 6.3 -14.1°
Maximum altitude 04:26:56 57° 253° (WSW) 878 4.0 -13.2°
Drops below altitude 10° 04:31:54 10° 175° (S) 2,247 6.3 -12.4°
Sets 04:34:16 0° 172° (S) 3,163 7.2 -12.1°
